DAH786 DAAG-LEMG

Flight info

Callsign DAH786
Flight time N/A
Altitude 40000
Route CHE1C CHE UA411 MOS UM744 CARBO M744 UMUKA
Aircraft B736/M-SDE2E3FGHIRWXY/LB1

Departure

Time 2026-05-08 18:55
Airport Houari Boumediene Airport (DAAG)

Arrival

Time N/A
Airport Málaga-Costa del Sol Airport (LEMG)
Time Latitude Longitude Altitude Speed Heading
2026-05-08 17:54 36.69692 3.20828 69 ft 0 kts
2026-05-08 18:44 36.69681 3.20826 49 ft 4 kts
2026-05-08 18:44 36.69655 3.20820 68 ft 4 kts 17°
2026-05-08 18:44 36.69630 3.20808 67 ft 4 kts 28°
2026-05-08 18:44 36.69608 3.20788 61 ft 4 kts 53°
2026-05-08 18:45 36.69600 3.20766 64 ft 0 kts 91°
2026-05-08 18:49 36.69600 3.20767 64 ft 0 kts 91°
2026-05-08 18:49 36.69597 3.20774 66 ft 1 kts 121°
2026-05-08 18:49 36.69586 3.20786 63 ft 3 kts 138°
2026-05-08 18:49 36.69558 3.20804 69 ft 6 kts 154°
2026-05-08 18:50 36.69512 3.20828 65 ft 8 kts 159°
2026-05-08 18:50 36.69459 3.20853 69 ft 8 kts 159°
2026-05-08 18:50 36.69408 3.20875 66 ft 8 kts 154°
2026-05-08 18:50 36.69389 3.20933 69 ft 8 kts 91°
2026-05-08 18:51 36.69388 3.20997 67 ft 7 kts 90°
2026-05-08 18:51 36.69388 3.21059 69 ft 7 kts 90°
2026-05-08 18:51 36.69388 3.21118 69 ft 7 kts 90°
2026-05-08 18:51 36.69388 3.21177 69 ft 7 kts 90°
2026-05-08 18:52 36.69387 3.21239 69 ft 8 kts 90°
2026-05-08 18:52 36.69387 3.21310 69 ft 8 kts 90°
2026-05-08 18:52 36.69387 3.21380 69 ft 8 kts 90°
2026-05-08 18:52 36.69386 3.21449 69 ft 8 kts 90°
2026-05-08 18:53 36.69386 3.21517 69 ft 8 kts 90°
2026-05-08 18:53 36.69386 3.21598 69 ft 10 kts 91°
2026-05-08 18:53 36.69384 3.21697 69 ft 12 kts 90°
2026-05-08 18:53 36.69387 3.21807 70 ft 13 kts 89°
2026-05-08 18:54 36.69384 3.21923 73 ft 13 kts 91°
2026-05-08 18:54 36.69401 3.22030 74 ft 13 kts 60°
2026-05-08 18:54 36.69457 3.22125 77 ft 18 kts 50°
2026-05-08 18:54 36.69757 3.22618 76 ft 123 kts 53°
2026-05-08 18:55 36.71181 3.24935 2029 ft 153 kts 53°
2026-05-08 18:55 36.71955 3.25846 3015 ft 174 kts 30°
2026-05-08 18:55 36.73179 3.26342 3561 ft 200 kts
2026-05-08 18:56 36.74657 3.26132 4066 ft 229 kts 338°
2026-05-08 18:56 36.75964 3.24917 4618 ft 249 kts 305°
2026-05-08 18:56 36.76863 3.23028 5161 ft 258 kts 296°
2026-05-08 18:56 36.77718 3.21026 5651 ft 263 kts 296°
2026-05-08 18:57 36.78563 3.19011 6147 ft 261 kts 295°
2026-05-08 18:57 36.79118 3.17684 6467 ft 260 kts 295°
2026-05-08 18:57 36.80235 3.15009 7054 ft 262 kts 295°
2026-05-08 18:57 36.80810 3.13635 7426 ft 273 kts 296°
2026-05-08 18:58 36.82027 3.11771 8399 ft 283 kts 317°
2026-05-08 18:58 36.83662 3.10355 9450 ft 289 kts 323°
2026-05-08 18:58 36.85393 3.09006 10338 ft 297 kts 323°
2026-05-08 18:58 36.87227 3.07591 10695 ft 324 kts 323°
2026-05-08 18:59 36.89232 3.06033 10907 ft 353 kts 323°
2026-05-08 18:59 36.91358 3.04371 11203 ft 374 kts 323°
2026-05-08 18:59 36.93590 3.02619 11893 ft 381 kts 323°
2026-05-08 18:59 36.95528 3.00410 12677 ft 375 kts 300°
2026-05-08 19:00 36.96556 2.97477 13554 ft 366 kts 279°
2026-05-08 19:00 36.96749 2.94325 14313 ft 364 kts 264°
2026-05-08 19:00 36.96272 2.91227 14990 ft 365 kts 249°
2026-05-08 19:00 36.95211 2.88338 15667 ft 368 kts 243°
2026-05-08 19:01 36.94023 2.85475 16307 ft 372 kts 242°
2026-05-08 19:01 36.92797 2.82606 16954 ft 376 kts 242°
2026-05-08 19:01 36.91554 2.79706 17602 ft 380 kts 242°
2026-05-08 19:01 36.90320 2.76810 18241 ft 384 kts 243°
2026-05-08 19:02 36.89067 2.73848 18789 ft 387 kts 243°
2026-05-08 19:02 36.87813 2.70867 19399 ft 388 kts 243°
2026-05-08 19:02 36.86559 2.67873 20015 ft 390 kts 243°
2026-05-08 19:02 36.85298 2.64860 20625 ft 392 kts 243°
2026-05-08 19:03 36.84034 2.61836 21216 ft 393 kts 243°
2026-05-08 19:03 36.82766 2.58804 21793 ft 395 kts 243°
2026-05-08 19:03 36.81486 2.55745 22347 ft 397 kts 243°
2026-05-08 19:03 36.80203 2.52680 22887 ft 400 kts 243°
2026-05-08 19:04 36.78912 2.49599 23399 ft 402 kts 243°
2026-05-08 19:04 36.77624 2.46531 23854 ft 404 kts 243°
2026-05-08 19:04 36.76317 2.43418 24324 ft 405 kts 243°
2026-05-08 19:04 36.75008 2.40303 24801 ft 405 kts 243°
2026-05-08 19:05 36.73696 2.37186 25269 ft 406 kts 243°
2026-05-08 19:05 36.72380 2.34062 25705 ft 408 kts 243°
2026-05-08 19:05 36.71054 2.30916 26142 ft 409 kts 243°
2026-05-08 19:05 36.69725 2.27766 26548 ft 411 kts 243°
2026-05-08 19:06 36.68408 2.24649 26957 ft 412 kts 243°
2026-05-08 19:06 36.67067 2.21477 27358 ft 413 kts 243°
2026-05-08 19:06 36.65723 2.18302 27743 ft 415 kts 243°
2026-05-08 19:06 36.64374 2.15117 28117 ft 416 kts 243°
2026-05-08 19:07 36.63023 2.11932 28490 ft 416 kts 243°
2026-05-08 19:07 36.61673 2.08753 28975 ft 414 kts 243°
2026-05-08 19:07 36.60332 2.05599 29578 ft 410 kts 243°
2026-05-08 19:07 36.59005 2.02479 30187 ft 406 kts 243°
2026-05-08 19:08 36.57703 1.99421 30702 ft 403 kts 243°
2026-05-08 19:08 36.56392 1.96343 31133 ft 402 kts 243°
2026-05-08 19:08 36.55082 1.93272 31537 ft 401 kts 243°
2026-05-08 19:08 36.53774 1.90207 31984 ft 399 kts 243°
2026-05-08 19:09 36.52473 1.87163 32462 ft 397 kts 243°
2026-05-08 19:09 36.51180 1.84141 32897 ft 395 kts 243°
2026-05-08 19:09 36.49891 1.81129 33334 ft 393 kts 243°
2026-05-08 19:09 36.48623 1.78171 33748 ft 392 kts 243°
2026-05-08 19:10 36.47341 1.75180 34067 ft 392 kts 243°
2026-05-08 19:10 36.46057 1.72188 34393 ft 391 kts 243°
2026-05-08 19:10 36.44780 1.69215 34791 ft 388 kts 243°
2026-05-08 19:10 36.43514 1.66272 35203 ft 385 kts 243°
2026-05-08 19:11 36.42253 1.63343 35542 ft 383 kts 243°
2026-05-08 19:11 36.40997 1.60425 35829 ft 383 kts 243°
2026-05-08 19:11 36.39756 1.57543 36102 ft 382 kts 243°
2026-05-08 19:11 36.38503 1.54639 36461 ft 379 kts 243°
2026-05-08 19:12 36.37258 1.51758 36796 ft 378 kts 242°
2026-05-08 19:12 36.36080 1.48841 37027 ft 378 kts 246°
2026-05-08 19:12 36.35062 1.45863 37195 ft 380 kts 247°
2026-05-08 19:12 36.34052 1.42830 37401 ft 380 kts 247°
2026-05-08 19:13 36.33050 1.39801 37620 ft 379 kts 247°
2026-05-08 19:13 36.32047 1.36774 37879 ft 378 kts 247°
2026-05-08 19:13 36.31041 1.33751 37889 ft 380 kts 247°
2026-05-08 19:14 36.29017 1.27702 37909 ft 378 kts 246°
2026-05-08 19:14 36.27007 1.21726 37918 ft 376 kts 246°
2026-05-08 19:15 36.24984 1.15733 37919 ft 375 kts 246°
2026-05-08 19:15 36.22971 1.09780 37919 ft 375 kts 246°
2026-05-08 19:16 36.20967 1.03864 37917 ft 374 kts 246°
2026-05-08 19:16 36.18949 0.97919 37938 ft 374 kts 246°
2026-05-08 19:17 36.16922 0.91960 37927 ft 375 kts 246°
2026-05-08 19:17 36.14904 0.86041 37931 ft 376 kts 246°
2026-05-08 19:18 36.12867 0.80074 37932 ft 376 kts 246°
2026-05-08 19:18 36.10825 0.74105 37936 ft 376 kts 246°
2026-05-08 19:19 36.08793 0.68180 37929 ft 377 kts 246°
2026-05-08 19:19 36.06746 0.62219 37929 ft 376 kts 246°
2026-05-08 19:20 36.04694 0.56255 37927 ft 377 kts 246°
2026-05-08 19:20 36.02651 0.50330 37936 ft 377 kts 246°
2026-05-08 19:21 36.00591 0.44368 37928 ft 377 kts 246°
2026-05-08 19:21 35.98531 0.38416 37926 ft 377 kts 245°
2026-05-08 19:22 35.96468 0.32468 37922 ft 376 kts 245°
2026-05-08 19:22 35.94405 0.26527 37935 ft 376 kts 245°
2026-05-08 19:23 35.92349 0.20624 37926 ft 376 kts 245°
2026-05-08 19:23 35.91021 0.14374 37939 ft 382 kts 261°
2026-05-08 19:24 35.91156 0.07764 37924 ft 394 kts 275°
2026-05-08 19:24 35.92576 0.01184 37937 ft 398 kts 278°
2026-05-08 19:25 35.94090 -0.05378 37931 ft 398 kts 278°
2026-05-08 19:25 35.95583 -0.11954 37933 ft 398 kts 278°
2026-05-08 19:26 35.97043 -0.18503 37934 ft 398 kts 277°
2026-05-08 19:26 35.98501 -0.25095 37935 ft 398 kts 277°
2026-05-08 19:27 35.99952 -0.31684 37939 ft 398 kts 277°
2026-05-08 19:27 36.01393 -0.38251 37944 ft 398 kts 277°
2026-05-08 19:28 36.02839 -0.44853 37933 ft 398 kts 277°
2026-05-08 19:28 36.04282 -0.51465 37934 ft 398 kts 277°
2026-05-08 19:29 36.05724 -0.58085 37934 ft 399 kts 277°
2026-05-08 19:29 36.07161 -0.64704 37938 ft 399 kts 277°
2026-05-08 19:30 36.08586 -0.71288 37934 ft 399 kts 277°
2026-05-08 19:30 36.10015 -0.77913 37935 ft 399 kts 277°
2026-05-08 19:31 36.11443 -0.84547 37938 ft 399 kts 277°
2026-05-08 19:31 36.12868 -0.91187 37940 ft 399 kts 276°
2026-05-08 19:32 36.14291 -0.97837 37936 ft 399 kts 276°
2026-05-08 19:32 36.15698 -1.04436 37939 ft 399 kts 276°
2026-05-08 19:33 36.17113 -1.11086 37941 ft 399 kts 276°
2026-05-08 19:33 36.18522 -1.17730 37936 ft 399 kts 276°
2026-05-08 19:34 36.19926 -1.24371 37940 ft 399 kts 276°
2026-05-08 19:34 36.21326 -1.31013 37937 ft 398 kts 276°
2026-05-08 19:35 36.22712 -1.37609 37931 ft 398 kts 276°
2026-05-08 19:35 36.24105 -1.44253 37933 ft 398 kts 276°
2026-05-08 19:36 36.25485 -1.50856 37937 ft 397 kts 276°
2026-05-08 19:36 36.26873 -1.57493 37937 ft 397 kts 276°